Location: Alpino
(32.5215°N, 116.5815°W)
Time: 05:00:55
(UTC+00:00)

YAOGAN 11 - Pass Details

Date: 13 April 2024
Orbit: 606 x 659 km, 98.4° (Epoch: 25 May)

Event Time Altitude Azimuth Distance (km) Brightness Sun altitude
Rises 12:39:02 0° 171° (S) 2,923 7.4 -8.9°
Reaches altitude 10° 12:41:13 10° 174° (S) 2,026 6.6 -8.5°
Maximum altitude 12:45:37 71° 258° (WSW) 688 4.1 -7.6°
Drops below altitude 10° 12:50:07 10° 343° (NNW) 2,067 6.7 -6.7°
Sets 12:52:22 0° 345° (NNW) 2,987 7.6 -6.2°
